Погода Николо-Полома

Поиск расширенной информации на нашем сайте:

Полезная информация:

Новости сайта



02.01.2020
Опубликован Долгосрочный прогноз погоды по городам России и ближнего зарубежья на январь 2020 года.
Карты: Прогноз на январь и февраль 2020 года, Сравнение прогнозируемой аномалии приземной температуры воздуха на январь 2020 года по разным моделям.




Погода Николо-Полома - сегодня

Время (UTC), дата Ветер
(°,м/с) 
Видим.   Явления Облачность Т
(°С)
Тd
(°С)
f(%) Тe
(°С)
Pmin
(гПа)
dP
(гПа)
Po
(мм)
O2
(г/м3)
Тmin Tmax R s Состояние
почвы
06 29.11.20 110 (В) 9000 м  слаб. снег  10/10 300 м 
[Sc]
-4.7 -5.8 92 -7  1038.2  0.9  764  314           
09 29.11.20 110 (В) 9000 м  дымка{снег}  10/10 300 м 
[Sc]
-3.8 -4.9 92 -6  1039  0.9  765  313           
12 29.11.20 120 (ЮВ) 9000 м  дымка{снег}  10/0 средняя 
[As op]
-3.6 -4.2 96 -6  1039.4  0.4  765  313           
15 29.11.20 110 (В) 4000 м  дымка  10/10 300 м 
[Sc]
-3.3 -3.9 96 -4  1039.7  0.4  765  313    -3.3  0.3     
18 29.11.20 110 (В) 4000 м  дымка  10/10 300 м 
[Sc]
-2.9 -3.2 98 -4  1039.8  0.1  765  312           
21 29.11.20 120 (ЮВ) 4000 м  дымка  10/10 300 м 
[Sc]
-1.7 -2 98 -4  1039.5  -0.2  765  311           
00 30.11.20 140 (ЮВ) 4000 м  дымка{снег}  10/10 300 м 
[Sc]
-0.9 -1.2 98 -3  1039.6  0.1  765  310           
03 30.11.20 140 (ЮВ) 4000 м  дымка  10/10 300 м 
[Sc]
-0.4 -0.7 98 -2  1038.8  -0.7  765  309  -3.3    0.2  равномерный
сухой снег
100% 
06 30.11.20 140 (ЮВ) 9000 м  дымка  10/10 300 м 
[Sc]
-0 -0.3 98 -2  1038.1  -0.7  764  308           
09 30.11.20 160 (Ю) 50000 м    10/10 300 м 
[Sc]
-0.2 -2.3 86 -3  1037.3  -0.8  764  308           
12 30.11.20 160 (Ю) 50000 м    10/10 300 м 
[Sc]
-0.8 -2.4 89 -3  1036.5  -0.8  763  309           
15 30.11.20 160 (Ю) 10 км    10/10 300 м 
[Sc]
-1.9 -3.4 89 -5  1036  -0.5  763  310    +0.1       
18 30.11.20 170 (Ю) 4{12}  10 км  позёмок  10/10 300 м 
[Sc]
-4 -6 86 -7  1036.4  0.1  763  313           
21 30.11.20 150 (ЮВ) 10 км    10/10 300 м 
[Sc]
-6.1 -7.8 88 -9  1036.3  -0.2  763  315           
00 01.12.20 170 (Ю) 20000 м    8/0 средняя 
[As op]
-6.3 -8.8 82 -10  1036  -0.3  762  315           
03 01.12.20 180 (Ю) 20000 м    8/0 верхняя 
[Ci fib]
-6.7 -9.3 82 -9  1035.8  -0.2  762  316  -6.7      равномерный
сухой снег
100% 
06 01.12.20 180 (Ю) 50000 м    10/0 средняя, верхняя 
[Ac As|Ci fib]
-6.9 -9.6 81 -10  1036  0.2  762  316  -7.1         
09 01.12.20 170 (Ю) 50000 м    10/0 средняя 
[As trans]
-5.8 -9 78 -8  1036.4  0.4  763  315           
12 01.12.20 170 (Ю) 50000 м    10/0 средняя 
[As trans]
-5.3 -8.2 80 -8  1036  -0.3  762  314           
15 01.12.20 160 (Ю) 20000 м    10/0 средняя 
[Ac und]
-6 -8.4 83 -7  1036.5  -0.3  763  315    -5.2       
18 01.12.20 180 (Ю) 20000 м    10/0 средняя, верхняя 
[Ac As|Ci fib]
-6.2 -8.7 82 -8  1037  0.5  763  316           
21 01.12.20 180 (Ю) 20000 м    10/0 средняя, верхняя 
[Ac As|Ci fib]
-6 -8.3 84 -7  1037.2  0.2  763  315           
00 02.12.20 190 (Ю) 20000 м    10/0 средняя 
[Ac As]
-5.9 -7.8 86 -7  1037.6  0.4  764  315           
03 02.12.20 190 (Ю) 20000 м    10/10 300 м 
[Sc]
-6.1 -7.5 90 -8  1037.8  0.2  764  316  -6.5      равномерный
сухой снег
100% 
06 02.12.20 200 (Ю) 20000 м  {снег}  10/10 300 м 
[Sc]
-5.8 -7.3 89 -5  1038.5  0.7  764  315           
Время (UTC), дата Ветер
(°,м/с) 
Видим.   Явления Облачность Т
(°С)
Тd
(°С)
f(%) Тe
(°С)
Pmin
(гПа)
dP
(гПа)
Po
(мм)
O2
(г/м3)
Тmin Tmax R s Состояние
почвы

Для получения пояснительной информации подведите курсор к названию столбца.

ПОГОДА Николо-Полома - архив

Всё, что Вы хотите узнать о погоде Николо-Полома - удобно и подробно!

Выберите нужную дату (начиная с 1 января 2019* года) и нажмите кнопку "Найти".
Будут отображены архивные сводки погоды по пункту Николо-Полома, начиная с указанной даты.


Отображать данные в формате CSV (для использования в таблицах Excel)


Внимание! Наш архив погоды предназначен исключительно для личного некоммерческого использования в познавательных целях. Если Вам необходимы официальные справки о состоянии погоды (для производственных, юридических, коммерческих и т.п. целей), обращайтесь в органы Росгидромета.

*Примечание: данная дата относится к архиву по метеостанциям СССР (Россия, СНГ, Балтия).
Архив по метеостанциям Зарубежной Европы и Азии (кроме Китая) хранится 10 дней, по другим регионам земного шара (Китай, Африка, Америка, Австралия, Океания) - 1 день.

Николо-Полома - район местоположения метеостанции


Название, широта, долгота, высота метеостанции:
Николо-Полома 58.3°ш. 43.4°д. 150 м над ур. моря [Российская Федерация]

Дополнительная информация

В oтличие oт бoльшинства пoгoдных сайтoв мы публикуем пoдрoбную метеoинфoрмацию в детальнoм прoфессиoнальнoм фoрмате.

Характеристики температуры и влажнoсти вoздуха измеряются на высoте 2 м в тени вдали oт зданий и деревьев.
Скoрoсть ветра измеряется на высoте 10 м (на урoвне рoста челoвека скoрoсть ветра ниже в 1.5-2 раза). Если метеoстанция нахoдится в гoрoде или в лесу, тo скoрoсть ветра занижена на 2-4 м/с пo сравнению с oткрытым местoм. Скoрoсть ветра над акватoриями крупных рек и oзёр, а также на вершинах хoлмoв на 2-5 м/с выше, чем в oбычных услoвиях.
Атмoсфернoе давление в разных тoчках местнoсти мoжет значительнo oтличаться oт давления на метеoстанции, в зависимoсти oт услoвий рельефа (при пoдъёме на 10 м давление пoнижается примернo на 1 мм рт.ст.).